This demonstration page uses our WeatherBlox Daily Observations layout. Learn more.

Left ArrowRight Arrow

Hourly Observations for February 26, 2016

Temp ( °F °C ) Dew Point ( °F °C ) Humidity (%) Winds ( mph kmh ) Pressure ( in mb ) Visibility ( mi km ) Precip ( " mm )
12:53 am 00:53 Clear 24 -4.4 19 -7.2 81 81 W 5 7 30.27 1025 10 16 0.00 0.00
1:53 am 01:53 Clear 25 -3.9 20 -6.7 81 81 WSW 7 11 30.27 1025 10 16 0.00 0.00
2:53 am 02:53 Clear 25 -3.9 20 -6.7 81 81 W 7 11 30.27 1025 10 16 0.00 0.00
3:53 am 03:53 Clear 23 -5 18 -7.8 81 81 W 6 9 30.15 1021 10 16 0.00 0.00
4:53 am 04:53 Clear 24 -4.4 19 -7.2 81 81 WSW 7 11 30.14 1021 10 16 0.00 0.00
5:53 am 05:53 Clear 24 -4.4 19 -7.2 81 81 WSW 9 15 30.14 1021 10 16 0.00 0.00
6:53 am 06:53 Clear 23 -5 19 -7.2 85 85 WSW 10 17 30.15 1021 10 16 0.00 0.00
7:53 am 07:53 Sunny 26 -3.3 21 -6.1 81 81 WSW 9 15 30.14 1021 10 16 0.00 0.00
8:53 am 08:53 Sunny 37 2.8 25 -3.9 62 62 SW 14 22 30.11 1020 10 16 0.00 0.00
9:53 am 09:53 Sunny 47 8.3 24 -4.4 41 41 SW 20 31 30.08 1019 10 16 0.00 0.00
10:53 am 10:53 Sunny 50 10 24 -4.4 36 36 SW 21 33 30.06 1018 10 16 0.00 0.00
11:53 am 11:53 Sunny 55 12.8 25 -3.9 31 31 SW 20 31 30.02 1017 10 16 0.00 0.00
12:53 pm 12:53 Sunny 60 15.6 25 -3.9 26 26 SW 24 39 29.98 1015 10 16 0.00 0.00
1:53 pm 13:53 Sunny 64 17.8 20 -6.7 18 18 WSW 18 30 29.94 1014 10 16 0.00 0.00
2:53 pm 14:53 Sunny 67 19.4 18 -7.8 15 15 WSW 20 31 29.91 1013 10 16 0.00 0.00
3:53 pm 15:53 Sunny 66 18.9 18 -7.8 16 16 WSW 13 20 29.88 1012 10 16 0.00 0.00
4:53 pm 16:53 Sunny 61 16.1 19 -7.2 20 20 SW 10 17 29.86 1011 10 16 0.00 0.00
5:53 pm 17:53 Sunny 53 11.7 20 -6.7 27 27 SSW 6 9 29.86 1011 10 16 0.00 0.00
6:53 pm 18:53 Clear 49 9.4 22 -5.6 35 35 SW 12 19 29.86 1011 10 16 0.00 0.00
7:53 pm 19:53 Clear 48 8.9 22 -5.6 36 36 SSW 16 26 29.84 1011 10 16 0.00 0.00
8:53 pm 20:53 Clear 47 8.3 22 -5.6 37 37 SW 16 26 29.82 1010 10 16 0.00 0.00
9:53 pm 21:53 Clear 39 3.9 22 -5.6 50 50 SW 9 15 29.81 1009 10 16 0.00 0.00
10:53 pm 22:53 Clear 33 0.6 21 -6.1 61 61 WSW 9 15 29.79 1009 10 16 0.00 0.00
11:53 pm 23:53 Clear 38 3.3 22 -5.6 52 52 SW 12 19 29.76 1008 10 16 0.00 0.00

Powered by AerisWeather